Temp
-6 -6 -6 -6 -6 -6 -6 -6 -7 -7 -6 -6 -6 -7 -6 -6 -7 -7 -7 -7 -7 -7 -7 -7 -6 -6 -6 -5 -6 -6 -6 -6 -6 -7 -7 -7 -6 -6 -7 -7 -7 -7 -8 -8
-6 -6 -6 -6 -6 -6 -6 -6 -7 -7 -6 -6 -6 -7 -7 -8 -7 -7 -7 -7 -7 -7 -7 -7 -6 -6 -6 -6 -6 -6 -6 -6 -6 -6 -7 -7 -7 -7 -7 -7 -6 -7 -7 -8
-6 -6 -6 -6 -6 -6 -6 -7 -7 -6 -6 -6 -6 -7 -7 -8 -7 -7 -7 -7 -7 -7 -7 -6 -6 -6 -6 -6 -6 -6 -6 -6 -6 -6 -6 -6 -7 -7 -7 -6 -7 -7 -7 -8
-6 -6 -6 -6 -7 -7 -7 -6 -7 -7 -6 -6 -6 -6 -7 -7 -7 -7 -7 -7 -7 -7 -7 -7 -7 -6 -6 -6 -6 -6 -6 -6 -6 -6 -6 -6 -7 -6 -6 -6 -6 -7 -8 -7
-6 -6 -6 -7 -7 -7 -8 -8 -7 -7 -7 -6 -6 -6 -7 -7 -7 -7 -7 -7 -7 -7 -6 -6 -7 -7 -6 -6 -6 -7 -6 -6 -7 -7 -6 -7 -7 -6 -6 -6 -6 -6 -7 -7
-7 -7 -7 -7 -8 -8 -8 -8 -7 -7 -7 -7 -7 -6 -7 -8 -8 -7 -7 -7 -7 -7 -7 -7 -7 -7 -7 -6 -7 -7 -7 -6 -7 -7 -7 -7 -7 -7 -7 -6 -6 -7 -7 -7
-7 -7 -8 -8 -8 -8 -8 -8 -8 -7 -7 -7 -7 -7 -8 -8 -7 -7 -7 -8 -8 -8 -8 -8 -7 -7 -7 -7 -7 -7 -7 -7 -7 -7 -7 -7 -7 -7 -7 -7 -6 -7 -7 -7
-7 -8 -8 -9 -9 -9 -8 -8 -9 -8 -8 -7 -8 -7 -8 -9 -8 -8 -7 -8 -8 -8 -8 -8 -8 -7 -7 -7 -8 -7 -7 -7 -7 -7 -7 -7 -7 -7 -7 -7 -7 -7 -7 -6
-7 -7 -7 -8 -8 -8 -8 -8 -9 -8 -8 -8 -8 -8 -8 -9 -9 -8 -8 -8 -8 -8 -9 -8 -8 -8 -7 -7 -8 -8 -8 -7 -7 -7 -7 -8 -8 -7 -7 -7 -7 -7 -7 -7
-8 -8 -9 -9 -9 -9 -9 -9 -9 -9 -9 -8 -8 -8 -8 -9 -9 -9 -8 -8 -8 -8 -8 -8 -9 -9 -8 -8 -8 -8 -8 -8 -7 -8 -8 -8 -8 -8 -8 -7 -7 -7 -7 -7
-8 -8 -9 -10 -9 -9 -10 -9 -9 -9 -9 -8 -8 -8 -8 -9 -9 -9 -9 -9 -8 -8 -8 -8 -9 -10 -9 -8 -8 -8 -9 -8 -8 -8 -8 -8 -8 -8 -7 -8 -8 -7 -7 -7
-8 -7 -7 -8 -9 -9 -10 -10 -10 -9 -9 -8 -9 -8 -9 -9 -9 -9 -9 -9 -9 -9 -8 -9 -9 -9 -9 -9 -9 -9 -8 -8 -8 -8 -8 -8 -8 -8 -8 -8 -8 -8 -8 -8
-8 -8 -8 -7 -7 -9 -9 -9 -10 -10 -10 -10 -10 -9 -9 -9 -9 -9 -9 -9 -9 -10 -8 -9 -9 -9 -9 -9 -9 -9 -9 -8 -9 -9 -9 -8 -8 -8 -8 -8 -8 -8 -8 -7
-9 -8 -8 -8 -8 -8 -8 -9 -9 -9 -10 -10 -10 -10 -10 -10 -10 -10 -10 -10 -10 -10 -9 -9 -9 -9 -9 -9 -10 -10 -9 -9 -8 -9 -9 -9 -9 -9 -8 -8 -8 -8 -8 -8
-8 -8 -8 -8 -8 -8 -9 -9 -9 -10 -10 -9 -10 -10 -11 -10 -10 -10 -10 -10 -10 -10 -10 -10 -9 -9 -9 -9 -10 -10 -10 -10 -9 -8 -9 -9 -9 -9 -9 -9 -8 -8 -8 -8
-8 -8 -8 -8 -8 -9 -9 -9 -10 -10 -10 -10 -9 -9 -9 -10 -10 -10 -11 -10 -10 -10 -10 -10 -10 -9 -9 -10 -10 -10 -9 -10 -9 -9 -8 -9 -9 -9 -9 -9 -9 -8 -8 -8
-8 -8 -8 -8 -8 -9 -9 -9 -10 -10 -10 -10 -10 -10 -10 -10 -10 -10 -10 -10 -10 -10 -10 -10 -10 -10 -9 -10 -10 -10 -10 -9 -9 -9 -9 -8 -8 -8 -8 -9 -9 -9 -9 -9
-8 -9 -9 -9 -9 -9 -9 -10 -10 -10 -11 -11 -11 -11 -11 -10 -10 -11 -11 -10 -10 -10 -10 -10 -10 -10 -10 -10 -11 -10 -10 -9 -9 -9 -8 -6 -9 -8 -9 -9 -9 -9 -9 -9
-9 -9 -9 -10 -10 -11 -11 -11 -12 -12 -12 -12 -12 -12 -12 -12 -11 -11 -11 -11 -11 -10 -10 -10 -10 -10 -10 -10 -10 -10 -9 -9 -9 -8 -9 -8 -9 -8 -7 -8 -8 -9 -9 -9
-10 -10 -10 -11 -11 -11 -11 -13 -13 -13 -13 -13 -13 -13 -13 -14 -12 -12 -12 -12 -11 -11 -11 -10 -10 -10 -10 -10 -10 -10 -10 -10 -9 -9 -9 -8 -8 -8 -8 -8 -9 -9 -9 -8
-11 -12 -12 -12 -12 -11 -12 -13 -13 -14 -13 -13 -13 -13 -13 -14 -13 -13 -12 -12 -12 -11 -11 -11 -10 -10 -10 -10 -10 -10 -10 -10 -10 -9 -9 -9 -9 -9 -9 -9 -9 -9 -9 -9
-12 -12 -13 -13 -13 -12 -13 -13 -13 -13 -13 -13 -13 -13 -13 -14 -13 -13 -13 -13 -12 -12 -12 -11 -10 -10 -10 -10 -10 -10 -10 -10 -10 -10 -10 -9 -9 -9 -9 -9 -9 -9 -9 -9
-13 -12 -12 -13 -13 -13 -12 -12 -13 -12 -12 -12 -12 -12 -13 -13 -13 -13 -13 -13 -13 -12 -12 -12 -11 -11 -11 -10 -10 -10 -9 -10 -10 -10 -10 -10 -10 -10 -10 -9 -9 -9 -9 -9
-13 -13 -13 -13 -14 -13 -13 -12 -12 -12 -12 -13 -13 -13 -12 -12 -13 -13 -13 -13 -13 -13 -13 -12 -11 -12 -11 -11 -11 -10 -9 -10 -10 -10 -10 -10 -10 -10 -10 -10 -10 -10 -9 -9
-13 -13 -14 -14 -14 -13 -13 -12 -12 -12 -12 -12 -12 -12 -12 -12 -12 -12 -13 -13 -13 -13 -13 -13 -12 -11 -11 -11 -11 -10 -10 -10 -10 -10 -10 -10 -10 -10 -10 -10 -10 -10 -10 -10
-14 -14 -14 -14 -14 -13 -13 -13 -13 -13 -12 -12 -12 -11 -12 -12 -12 -13 -12 -12 -13 -13 -13 -12 -12 -11 -11 -11 -11 -10 -10 -11 -11 -10 -10 -10 -10 -10 -8 -9 -9 -10 -10 -10
Height
5894 5895 5895 5894 5894 5895 5896 5896 5895 5896 5896 5895 5893 5891 5890 5890 5891 5890 5890 5890 5889 5888 5886 5886 5888 5889 5890 5890 5890 5890 5889 5891 5892 5894 5895 5897 5898 5899 5900 5903 5905 5907 5908 5910
5892 5893 5893 5893 5893 5894 5895 5895 5895 5895 5895 5894 5892 5891 5891 5891 5890 5889 5888 5888 5887 5887 5886 5885 5885 5886 5887 5888 5888 5888 5889 5888 5889 5892 5894 5895 5897 5899 5901 5902 5904 5906 5907 5908
5891 5892 5892 5892 5892 5893 5894 5893 5893 5894 5893 5893 5893 5891 5890 5891 5890 5888 5886 5885 5885 5884 5883 5883 5883 5884 5885 5885 5887 5887 5886 5887 5887 5889 5893 5894 5895 5897 5898 5899 5902 5904 5905 5907
5889 5890 5891 5891 5890 5892 5892 5891 5892 5892 5892 5891 5891 5892 5891 5890 5889 5887 5887 5886 5884 5883 5882 5881 5881 5882 5883 5883 5884 5885 5885 5886 5886 5887 5891 5892 5894 5895 5896 5897 5899 5901 5903 5905
5889 5889 5890 5890 5889 5890 5891 5890 5890 5889 5889 5890 5889 5889 5890 5889 5888 5887 5886 5884 5882 5881 5880 5879 5879 5881 5881 5880 5880 5882 5884 5884 5885 5885 5888 5891 5893 5894 5895 5896 5897 5899 5901 5903
5887 5888 5888 5888 5887 5888 5889 5888 5888 5887 5886 5886 5884 5887 5888 5888 5887 5886 5885 5883 5882 5879 5878 5877 5876 5877 5878 5878 5877 5878 5881 5882 5883 5884 5886 5889 5890 5892 5894 5894 5895 5896 5898 5900
5884 5885 5886 5887 5886 5886 5886 5885 5885 5886 5884 5883 5882 5884 5887 5886 5885 5886 5885 5883 5881 5879 5878 5876 5875 5873 5875 5876 5876 5877 5879 5880 5881 5882 5883 5886 5888 5889 5892 5893 5894 5896 5897 5898
5881 5881 5883 5883 5883 5883 5882 5882 5881 5880 5881 5880 5879 5881 5885 5882 5884 5884 5883 5881 5880 5878 5876 5874 5872 5871 5871 5873 5874 5875 5877 5878 5879 5880 5881 5883 5885 5885 5888 5891 5892 5893 5894 5896
5881 5881 5879 5880 5879 5879 5879 5879 5878 5877 5877 5877 5877 5878 5880 5881 5881 5880 5880 5880 5878 5876 5875 5874 5870 5869 5870 5871 5873 5874 5875 5875 5877 5878 5879 5880 5881 5883 5884 5887 5889 5890 5891 5894
5879 5880 5877 5877 5876 5877 5876 5877 5876 5874 5873 5874 5875 5875 5875 5876 5877 5877 5877 5878 5877 5876 5875 5873 5871 5869 5869 5869 5871 5873 5873 5873 5873 5875 5876 5877 5878 5880 5882 5884 5886 5888 5889 5891
5872 5875 5878 5873 5873 5873 5872 5871 5871 5871 5870 5868 5870 5873 5873 5873 5872 5873 5874 5874 5875 5874 5873 5873 5871 5869 5867 5866 5866 5869 5870 5870 5869 5870 5872 5873 5874 5876 5879 5880 5882 5884 5887 5889
5864 5863 5869 5869 5868 5868 5867 5864 5866 5865 5865 5864 5863 5866 5867 5867 5868 5868 5870 5871 5870 5870 5871 5870 5870 5867 5865 5863 5863 5864 5867 5866 5864 5867 5868 5870 5871 5873 5875 5875 5878 5880 5883 5886
5857 5854 5853 5860 5863 5862 5859 5857 5858 5857 5856 5855 5854 5858 5859 5859 5861 5862 5863 5865 5867 5866 5866 5867 5867 5867 5863 5861 5860 5861 5862 5860 5865 5863 5866 5867 5868 5869 5870 5871 5873 5876 5878 5881
5848 5846 5846 5845 5847 5851 5850 5848 5848 5848 5846 5846 5845 5847 5851 5853 5853 5854 5855 5856 5858 5859 5861 5861 5862 5864 5863 5860 5858 5857 5857 5859 5860 5862 5863 5865 5866 5867 5868 5869 5869 5871 5872 5874
5840 5839 5838 5837 5836 5834 5835 5837 5838 5836 5837 5834 5837 5835 5840 5842 5844 5845 5846 5846 5849 5850 5852 5854 5855 5858 5858 5857 5855 5852 5852 5852 5853 5857 5860 5859 5859 5861 5864 5866 5866 5866 5866 5868
5832 5830 5828 5827 5825 5822 5820 5822 5824 5826 5823 5823 5823 5825 5824 5827 5830 5832 5834 5837 5840 5843 5845 5846 5847 5849 5850 5851 5849 5846 5845 5846 5848 5849 5852 5851 5851 5857 5857 5858 5863 5864 5863 5864
5823 5819 5817 5816 5813 5809 5809 5809 5809 5809 5806 5808 5809 5812 5813 5813 5814 5817 5821 5823 5826 5831 5835 5836 5836 5840 5843 5844 5842 5842 5842 5843 5844 5846 5846 5845 5844 5848 5847 5851 5857 5861 5863 5864
5811 5808 5805 5804 5800 5798 5794 5792 5793 5794 5793 5793 5793 5792 5799 5802 5803 5803 5805 5808 5812 5816 5820 5824 5826 5828 5832 5835 5835 5835 5834 5837 5838 5839 5839 5823 5841 5838 5839 5850 5851 5854 5857 5859
5799 5795 5792 5790 5787 5786 5782 5780 5778 5777 5779 5778 5780 5780 5780 5786 5789 5789 5791 5793 5797 5800 5805 5810 5814 5817 5819 5821 5825 5828 5829 5828 5830 5832 5833 5821 5815 5838 5841 5843 5845 5848 5853 5856
5786 5782 5779 5776 5774 5772 5773 5771 5769 5768 5767 5767 5767 5767 5767 5767 5772 5773 5773 5776 5781 5786 5790 5795 5800 5805 5810 5810 5814 5817 5818 5820 5824 5826 5824 5825 5825 5828 5831 5834 5837 5843 5847 5849
5775 5771 5767 5764 5762 5762 5761 5760 5758 5757 5760 5755 5755 5754 5754 5754 5757 5760 5759 5760 5765 5770 5775 5781 5786 5792 5798 5801 5804 5809 5810 5813 5814 5816 5818 5817 5818 5820 5823 5827 5831 5835 5837 5839
5766 5763 5761 5758 5756 5753 5751 5749 5749 5747 5744 5744 5743 5742 5742 5742 5744 5746 5748 5749 5751 5755 5761 5767 5773 5778 5784 5788 5793 5796 5800 5802 5804 5807 5812 5813 5815 5815 5817 5820 5823 5827 5829 5831
5756 5753 5752 5750 5748 5744 5742 5743 5740 5738 5737 5735 5733 5731 5729 5731 5732 5734 5735 5737 5739 5741 5747 5753 5758 5765 5770 5776 5781 5785 5788 5791 5794 5798 5803 5807 5809 5812 5811 5813 5815 5817 5820 5822
5747 5745 5743 5742 5740 5738 5737 5735 5733 5731 5729 5727 5723 5722 5720 5720 5722 5722 5723 5725 5727 5730 5734 5739 5746 5751 5757 5763 5768 5773 5777 5781 5784 5789 5793 5799 5801 5803 5805 5807 5809 5811 5812 5815
5741 5738 5737 5735 5731 5732 5730 5726 5723 5719 5716 5714 5712 5709 5708 5708 5710 5710 5711 5713 5714 5717 5720 5726 5733 5738 5744 5751 5754 5756 5762 5766 5772 5778 5782 5788 5791 5794 5796 5800 5800 5802 5805 5807
5734 5731 5730 5729 5725 5723 5726 5719 5713 5706 5701 5697 5692 5690 5691 5691 5693 5694 5694 5696 5700 5703 5707 5711 5717 5722 5730 5737 5741 5741 5739 5751 5758 5769 5774 5777 5777 5778 5780 5784 5785 5791 5796 5799
Wind_Speed
8 9 8 9 10 8 9 7 6 7 6 4 3 5 5 0 2 3 3 5 5 7 9 9 10 9 8 10 13 14 13 12 11 12 12 12 11 6 6 10 12 9 10 12
10 9 9 10 11 10 10 8 8 10 8 5 3 1 2 4 6 6 1 5 6 7 7 6 9 11 12 12 12 15 16 15 13 13 13 13 13 12 12 11 13 12 10 10
10 8 8 9 10 10 11 11 11 9 9 7 4 2 4 4 1 6 5 2 4 4 6 6 6 3 9 14 12 15 18 17 16 13 12 10 13 15 15 13 17 16 14 10
8 7 8 8 10 9 9 14 12 12 10 9 7 1 6 3 5 1 4 4 5 6 7 8 7 7 7 13 16 16 17 19 19 16 12 10 11 13 15 16 17 20 21 14
7 8 8 9 9 8 10 12 15 13 11 8 10 5 2 2 4 3 5 7 8 5 6 8 7 9 10 8 15 19 18 19 20 19 14 12 13 14 11 12 13 16 18 14
7 7 7 8 9 6 12 15 15 15 14 9 13 7 6 3 6 8 2 7 9 8 10 6 6 4 9 9 13 17 16 17 20 20 17 15 14 17 17 13 12 15 16 14
9 8 7 7 12 13 14 14 15 13 11 11 15 9 7 6 8 10 9 5 7 8 10 12 10 12 10 10 14 15 16 16 18 19 17 16 16 15 18 17 16 16 15 15
12 11 11 14 15 16 15 17 14 13 11 11 14 10 6 12 13 15 14 6 5 6 8 13 13 11 11 10 15 16 14 14 17 19 17 15 16 14 15 15 17 17 17 16
14 14 17 19 21 21 17 16 16 18 13 12 12 12 10 12 11 14 14 7 6 5 9 9 13 10 13 12 14 16 15 14 14 15 14 14 14 16 16 15 17 17 16 16
14 9 19 20 22 24 24 21 19 21 21 17 12 14 15 15 16 19 18 11 5 5 6 6 9 8 13 16 15 14 15 17 17 16 15 15 16 16 16 16 17 18 18 18
19 17 15 22 25 25 25 27 26 23 24 25 23 17 14 17 19 18 17 15 14 12 11 4 4 5 11 13 14 15 13 18 18 21 20 18 18 17 17 18 18 19 20 19
26 28 19 20 22 25 26 30 30 32 31 30 29 22 22 18 21 22 24 17 20 19 12 8 10 8 8 12 14 13 13 18 19 18 20 21 19 19 20 21 20 20 21 21
31 34 34 25 25 29 34 34 30 31 35 36 38 32 29 29 26 23 22 18 20 26 22 14 16 12 7 8 12 15 15 19 10 15 19 20 20 19 21 23 22 22 22 22
35 38 39 40 38 34 36 38 38 36 39 39 42 40 35 35 34 32 32 27 22 25 27 27 18 17 17 15 13 15 18 17 15 15 17 17 19 22 20 20 23 23 23 24
38 39 41 42 43 46 45 43 44 47 45 47 45 47 43 40 39 38 37 35 30 26 27 28 25 19 17 17 22 19 18 18 19 14 15 18 23 22 21 25 23 23 25 26
38 41 43 43 47 50 51 50 47 44 49 49 48 47 49 48 45 44 44 42 36 29 30 31 35 29 23 22 26 27 25 20 19 17 18 22 24 26 19 22 26 22 24 26
38 40 42 43 46 50 51 51 50 48 51 50 48 48 48 49 50 48 46 48 44 41 38 39 40 36 29 27 18 18 21 19 17 17 17 26 26 27 24 22 22 19 22 22
39 39 40 41 43 46 49 50 50 50 50 50 50 49 45 47 49 49 48 47 46 43 37 33 39 45 36 35 27 26 23 22 23 22 18 23 25 28 19 23 20 24 26 26
41 41 42 42 42 40 41 42 43 42 44 44 42 44 43 41 46 48 48 48 47 46 41 38 37 31 29 41 41 30 24 27 28 25 20 30 12 29 26 23 23 21 22 21
41 41 40 39 38 37 33 33 35 37 40 39 39 41 43 41 40 43 48 49 48 45 43 40 42 40 31 31 24 29 18 22 21 27 27 25 27 23 21 22 23 25 23 23
36 36 36 35 35 34 33 33 32 33 32 33 35 37 39 37 37 39 44 47 47 47 46 42 42 43 39 35 34 38 29 24 29 31 30 26 26 21 18 18 17 17 18 18
34 31 31 32 33 34 33 30 28 29 29 28 30 35 39 40 37 37 37 40 44 44 41 43 44 43 46 44 40 38 28 31 31 29 29 25 23 21 18 16 16 17 16 16
33 33 31 28 22 27 27 24 25 28 28 31 30 33 35 36 38 41 40 39 39 42 43 40 39 40 42 43 43 38 33 37 33 32 34 29 24 20 17 16 17 16 18 19
31 29 26 21 20 21 22 24 27 29 31 31 34 35 36 35 36 38 43 43 42 42 42 44 44 42 43 45 46 45 40 41 34 34 37 33 28 25 23 21 23 22 19 20
26 23 22 21 23 20 25 31 34 36 39 39 41 44 42 41 38 39 43 45 46 48 47 46 48 49 47 45 44 49 51 44 40 40 42 37 36 33 27 27 27 24 23 22
21 21 21 18 24 26 24 30 34 40 45 47 48 46 44 39 39 40 46 43 44 42 49 49 51 50 52 51 52 48 48 45 45 43 38 39 46 46 42 37 33 28 24 22
Wind_Direction
282 276 274 275 292 303 306 309 321 302 322 349 0 320 289 316 65 83 202 240 249 201 229 245 236 230 245 221 214 212 210 222 220 235 237 239 247 250 247 211 205 207 212 216
274 271 286 291 300 308 302 308 297 285 302 320 350 322 329 44 33 20 21 162 252 247 223 254 252 225 228 229 221 218 223 228 229 224 238 240 246 251 242 233 203 202 207 226
264 263 275 291 307 314 315 298 290 295 301 312 351 107 156 137 94 59 11 292 224 250 235 226 270 251 232 217 222 222 223 226 226 224 235 238 242 240 233 217 205 207 214 224
269 276 276 285 292 313 302 293 290 287 288 302 320 73 177 181 181 15 350 338 280 258 250 254 252 286 282 238 226 230 223 225 225 231 227 237 245 244 238 229 210 207 218 225
269 280 301 295 292 311 271 277 275 281 289 294 285 302 284 178 210 254 316 345 16 340 290 248 250 247 267 262 229 222 227 224 224 227 226 231 233 233 241 239 227 213 211 215
279 283 285 289 293 267 262 277 287 292 289 291 279 298 247 231 264 259 340 10 355 4 350 302 277 248 267 267 229 211 222 222 221 222 225 236 240 244 246 248 234 205 204 219
244 255 249 250 258 260 275 290 299 299 295 281 283 294 200 240 264 293 271 338 349 335 329 331 298 268 254 261 230 225 222 221 221 226 229 241 247 241 246 242 231 218 220 218
239 217 226 230 241 254 270 284 291 298 293 274 272 273 229 257 267 281 281 290 309 334 311 316 312 283 260 250 219 215 222 226 229 228 226 231 240 237 242 241 233 221 218 206
274 269 265 260 263 277 265 267 269 287 285 274 271 267 231 238 250 260 279 289 317 336 323 326 331 283 271 244 227 222 225 227 226 228 225 226 231 232 231 235 233 220 213 209
274 272 260 252 267 267 273 276 271 279 284 278 277 272 267 237 231 257 280 279 277 323 319 1 17 338 295 275 250 243 236 236 233 231 231 232 233 233 235 232 229 221 216 217
270 261 212 242 259 261 261 276 279 278 273 283 291 290 279 259 249 248 272 279 279 281 281 295 345 338 295 294 283 259 262 259 245 235 228 230 235 230 231 233 229 222 222 225
278 276 240 234 244 256 254 266 273 280 280 281 290 292 288 281 261 272 268 270 283 284 279 270 304 276 283 278 287 286 253 251 238 241 233 231 233 236 241 233 231 225 223 227
286 286 289 274 254 247 252 264 268 274 276 276 281 287 290 288 289 286 282 279 273 274 279 276 289 261 267 278 285 286 282 272 273 255 253 242 242 234 234 229 231 229 225 224
278 281 283 286 286 277 273 272 272 267 266 272 273 276 276 284 286 286 289 291 291 273 273 273 273 281 279 273 273 277 280 278 282 257 264 256 252 243 243 244 240 237 238 230
278 280 280 280 281 279 278 274 272 274 272 269 272 271 274 272 274 276 275 274 276 263 259 263 262 272 290 280 260 256 255 264 270 265 257 265 254 252 251 253 249 249 245 243
281 283 280 278 276 276 276 278 277 272 272 272 270 271 270 268 263 261 266 269 270 266 270 257 266 255 255 265 252 239 244 243 255 260 261 261 268 239 251 260 257 260 246 232
282 281 280 281 277 275 276 276 273 272 272 272 270 267 267 268 268 267 262 262 261 261 258 268 255 264 266 258 238 250 255 247 249 251 238 257 266 258 237 253 243 252 246 238
290 286 282 279 276 273 273 272 272 270 269 269 270 269 264 263 265 265 266 263 264 264 263 250 255 255 252 259 234 232 239 251 259 255 237 237 246 270 265 249 250 260 248 241
294 292 290 288 285 282 278 276 274 272 269 266 267 268 268 261 261 262 260 262 260 260 258 247 243 257 255 251 259 230 253 252 254 248 239 258 238 246 245 245 246 256 249 267
297 296 293 290 288 284 282 276 272 271 271 273 271 267 265 265 256 259 257 255 255 254 251 247 241 243 248 253 251 217 242 244 253 250 238 235 242 237 239 238 241 248 258 267
295 292 290 289 288 290 289 288 288 279 277 272 267 264 262 260 258 253 255 255 254 252 248 242 241 235 239 247 246 236 248 248 253 247 235 234 238 234 236 244 250 251 249 247
291 285 282 284 289 292 291 290 286 282 283 278 273 268 264 259 254 250 249 253 253 250 247 243 238 237 233 234 242 242 235 245 243 238 233 230 225 222 220 224 233 242 246 247
289 288 293 291 285 275 283 292 288 286 283 279 271 267 267 260 257 250 246 245 249 248 241 236 234 232 231 234 235 236 232 235 234 237 231 229 231 234 233 237 242 243 245 246
290 294 291 288 279 290 296 289 283 280 278 274 274 273 272 269 263 259 248 247 242 244 241 235 228 227 231 227 233 230 223 224 222 229 231 232 233 236 241 244 249 248 245 246
292 287 287 290 289 296 298 294 292 292 287 279 276 276 274 269 265 257 255 255 252 243 242 239 232 227 226 225 231 228 218 215 224 228 228 230 232 236 232 237 238 238 241 239
286 284 290 290 295 302 302 295 293 291 293 292 288 283 281 278 264 258 251 249 249 251 244 244 234 227 224 224 230 241 242 211 213 224 231 238 235 230 226 225 225 228 230 233